Find STARLINK-36664

NORAD ID: 70598 Constellation: starlink operational
LEOCIRCULAR

实时位置

正在加载3D地球...

关于 STARLINK-36664

正在加载描述...

即将过境

Passes for default location (London). Set your location on the main map for personalized predictions.

高度历史

Loading altitude history...

两行轨道根数

1 70598C 26099Q 26122.87548611 -.00124620 00000+0 -15019-3 0 1221
2 70598 53.1635 22.6358 0005585 287.9748 99.3205 16.07539424 18
Epoch: May 2, 2026 • Age: 31 hours